contact:dominique.lefevre@mio.osupytheas.fr, maurice.libes@osupytheas.fr, didier.mallarino@osupytheas.fr
Project:EMSO http://www.emso-fr.org/EMSO-France
Depth: 2436.0 m
Title:EMSO Ligure Ouest : Data MII capteur AQUADOPP
Date,Latitude,Longitude,X_East,Y_North,Z_Up,Amplitude_X,Amplitude_Y,Amplitude_Z,Batterie,SoundSpeed,Heading,Pitch,Roll,Pressure,TIS,Speed,Direction
, degrees North, degrees East, m.s-1, m.s-1,m.s-1, 1, 1, 1, Volt, m.s-1, degree, degree, degree, dbar, degree_C, m.s-1, degree
2020-01-06T00:04:03,42.805,6.029,-0.021,0.009,-0.045,105.0,110.0,105.0,13.4,1505.3,325.4,-0.8,1.8,2470.256,13.33,0.022,293.2
2020-01-06T00:07:03,42.805,6.029,-0.014,0.005,-0.045,108.0,112.0,101.0,13.4,1505.3,323.4,-0.7,1.8,2470.25,13.33,0.014,289.6
2020-01-06T00:10:03,42.805,6.029,-0.014,0.008,-0.063,107.0,112.0,103.0,13.4,1505.4,327.4,-0.7,1.8,2470.209,13.34,0.016,299.7
2020-01-06T00:13:03,42.805,6.029,-0.023,0.028,-0.039,109.0,110.0,103.0,13.4,1505.4,325.6,-0.7,1.8,2470.206,13.34,0.036,320.6
2020-01-06T00:16:03,42.805,6.029,-0.035,0.04,-0.045,107.0,111.0,102.0,13.3,1505.4,326.4,-0.7,1.8,2470.216,13.34,0.053,318.8
2020-01-06T00:19:03,42.805,6.029,-0.015,0.013,-0.025,107.0,110.0,102.0,13.3,1505.4,325.2,-0.7,1.8,2470.231,13.34,0.019,310.9
2020-01-06T00:22:03,42.805,6.029,-0.007,0.011,-0.044,107.0,112.0,103.0,13.4,1505.4,326.5,-0.7,1.9,2470.179,13.34,0.013,327.5
2020-01-06T00:25:03,42.805,6.029,-0.008,0.005,-0.019,107.0,111.0,103.0,13.4,1505.4,326.6,-0.7,1.8,2470.213,13.34,0.009,302.0
2020-01-06T00:31:03,42.805,6.029,-0.016,0.013,-0.051,106.0,111.0,104.0,13.4,1505.3,324.2,-0.8,1.8,2470.241,13.33,0.02,309.1
2020-01-06T00:34:03,42.805,6.029,-0.034,0.021,-0.015,106.0,111.0,101.0,13.3,1505.3,323.6,-0.7,1.8,2470.215,13.33,0.039,301.7
2020-01-06T00:37:03,42.805,6.029,-0.007,0.003,-0.037,105.0,111.0,103.0,13.3,1505.4,326.8,-0.7,1.8,2470.233,13.34,0.007,293.2
2020-01-06T00:40:03,42.805,6.029,-0.032,0.009,-0.039,106.0,110.0,101.0,13.4,1505.4,328.4,-0.7,1.8,2470.229,13.34,0.033,285.7
2020-01-06T00:43:03,42.805,6.029,0.005,0.01,-0.007,107.0,112.0,102.0,13.3,1505.4,327.1,-0.7,1.9,2470.226,13.34,0.011,26.6
2020-01-06T00:46:03,42.805,6.029,-0.015,-0.012,-0.068,108.0,110.0,103.0,13.4,1505.4,327.6,-0.7,1.8,2470.261,13.34,0.019,231.3
2020-01-06T00:49:03,42.805,6.029,-0.015,0.021,-0.051,107.0,112.0,102.0,13.3,1505.4,325.7,-0.7,1.8,2470.268,13.34,0.025,324.5
2020-01-06T00:52:03,42.805,6.029,-0.009,0.016,-0.053,103.0,111.0,103.0,13.4,1505.4,324.6,-0.7,1.8,2470.238,13.34,0.018,330.6
2020-01-06T00:55:03,42.805,6.029,-0.018,0.011,-0.037,106.0,110.0,104.0,13.3,1505.4,326.7,-0.7,1.8,2470.21,13.34,0.021,301.4
2020-01-06T00:58:03,42.805,6.029,-0.028,0.014,-0.057,108.0,110.0,104.0,13.4,1505.4,326.6,-0.7,1.8,2470.247,13.34,0.031,296.6
2020-01-06T01:04:03,42.805,6.029,-0.034,0.015,-0.033,107.0,111.0,103.0,13.4,1505.3,322.8,-0.7,1.8,2470.244,13.33,0.037,293.8
2020-01-06T01:07:03,42.805,6.029,0.0,0.014,-0.065,106.0,111.0,102.0,13.4,1505.3,325.4,-0.7,1.8,2470.248,13.33,0.014,0.0
2020-01-06T01:10:03,42.805,6.029,-0.013,0.021,-0.024,107.0,110.0,104.0,13.3,1505.4,326.7,-0.7,1.8,2470.232,13.34,0.024,328.2
2020-01-06T01:13:03,42.805,6.029,-0.018,0.005,-0.043,106.0,112.0,103.0,13.3,1505.4,324.3,-0.7,1.8,2470.235,13.34,0.018,285.5
2020-01-06T01:16:03,42.805,6.029,-0.001,0.03,-0.03,107.0,110.0,103.0,13.4,1505.4,324.0,-0.8,1.8,2470.25,13.34,0.03,358.1
2020-01-06T01:19:03,42.805,6.029,0.001,0.014,-0.006,107.0,111.0,101.0,13.4,1505.4,325.4,-0.7,1.8,2470.21,13.34,0.014,4.1
2020-01-06T01:22:03,42.805,6.029,0.021,0.02,0.02,106.0,111.0,103.0,13.4,1505.4,327.7,-0.7,1.8,2470.236,13.34,0.028,46.4
2020-01-06T01:25:03,42.805,6.029,0.012,0.008,-0.021,107.0,111.0,102.0,13.3,1505.4,327.7,-0.7,1.8,2470.254,13.34,0.014,56.3
2020-01-06T01:28:03,42.805,6.029,0.0,0.019,-0.039,105.0,112.0,103.0,13.3,1505.4,324.6,-0.7,1.9,2470.279,13.34,0.019,0.0
2020-01-06T01:31:03,42.805,6.029,0.011,0.024,-0.022,106.0,111.0,103.0,13.3,1505.4,324.8,-0.7,1.9,2470.197,13.34,0.026,24.6
2020-01-06T01:34:03,42.805,6.029,0.026,0.028,-0.016,107.0,110.0,103.0,13.4,1505.4,325.2,-0.7,1.9,2470.21,13.35,0.038,42.9
2020-01-06T01:37:03,42.805,6.029,0.017,0.015,0.009,105.0,108.0,104.0,13.4,1505.4,325.3,-0.7,1.8,2470.21,13.35,0.022,48.6
2020-01-06T01:40:03,42.805,6.029,0.011,0.026,-0.014,105.0,109.0,103.0,13.3,1505.4,327.3,-0.7,1.8,2470.253,13.35,0.028,22.9
2020-01-06T01:43:03,42.805,6.029,0.003,0.013,-0.014,106.0,107.0,102.0,13.3,1505.4,323.1,-0.7,1.9,2470.292,13.35,0.013,13.0
2020-01-06T01:46:03,42.805,6.029,-0.005,0.021,-0.014,107.0,109.0,104.0,13.4,1505.4,324.6,-0.7,1.8,2470.246,13.35,0.021,346.6
2020-01-06T01:49:03,42.805,6.029,0.008,0.0,-0.046,107.0,109.0,103.0,13.4,1505.4,323.5,-0.7,1.8,2470.253,13.35,0.008,90.0
2020-01-06T01:52:03,42.805,6.029,0.016,0.028,-0.006,108.0,107.0,102.0,13.3,1505.4,326.5,-0.7,1.8,2470.26,13.35,0.032,29.7
2020-01-06T01:55:03,42.805,6.029,0.007,0.009,-0.035,106.0,109.0,101.0,13.3,1505.4,325.1,-0.7,1.8,2470.232,13.35,0.011,37.9
2020-01-06T01:58:03,42.805,6.029,0.031,0.004,-0.014,106.0,109.0,103.0,13.3,1505.4,325.8,-0.7,1.9,2470.251,13.35,0.031,82.7
2020-01-06T02:04:03,42.805,6.029,0.019,0.029,0.005,106.0,110.0,103.0,13.4,1505.3,325.2,-0.8,1.8,2470.261,13.33,0.034,33.2
2020-01-06T02:07:03,42.805,6.029,0.01,0.011,-0.003,106.0,110.0,103.0,13.4,1505.4,325.6,-0.7,1.8,2470.283,13.34,0.014,42.3
2020-01-06T02:10:03,42.805,6.029,0.018,0.008,-0.004,106.0,109.0,103.0,13.4,1505.4,326.4,-0.7,1.8,2470.316,13.34,0.019,66.0
2020-01-06T02:13:03,42.805,6.029,0.014,0.044,-0.004,105.0,107.0,103.0,13.4,1505.4,326.5,-0.7,1.8,2470.234,13.34,0.046,17.6
2020-01-06T02:16:03,42.805,6.029,0.028,0.038,-0.014,106.0,109.0,102.0,13.4,1505.4,324.6,-0.7,1.8,2470.276,13.34,0.047,36.4
2020-01-06T02:19:03,42.805,6.029,0.006,0.024,-0.001,108.0,108.0,103.0,13.3,1505.4,325.0,-0.7,1.8,2470.264,13.34,0.024,14.0
2020-01-06T02:22:03,42.805,6.029,0.004,0.018,-0.012,105.0,111.0,102.0,13.4,1505.4,325.3,-0.7,1.9,2470.306,13.34,0.018,12.5
2020-01-06T02:25:03,42.805,6.029,0.009,0.014,0.004,107.0,110.0,102.0,13.4,1505.4,326.2,-0.7,1.8,2470.28,13.34,0.016,32.7
2020-01-06T02:28:03,42.805,6.029,-0.021,0.023,-0.029,105.0,111.0,101.0,13.4,1505.4,324.9,-0.7,1.8,2470.243,13.34,0.031,317.6
2020-01-06T02:31:03,42.805,6.029,-0.001,0.023,-0.029,107.0,111.0,103.0,13.4,1505.4,326.2,-0.7,1.8,2470.222,13.34,0.023,357.5
2020-01-06T02:34:03,42.805,6.029,0.008,0.036,-0.048,106.0,109.0,103.0,13.4,1505.4,324.4,-0.7,1.8,2470.246,13.34,0.036,12.5
2020-01-06T02:37:03,42.805,6.029,-0.005,0.003,-0.049,105.0,110.0,101.0,13.3,1505.4,323.4,-0.7,1.8,2470.287,13.34,0.005,301.0
2020-01-06T02:40:03,42.805,6.029,0.006,0.019,-0.037,104.0,110.0,101.0,13.4,1505.4,324.3,-0.7,1.9,2470.262,13.34,0.019,17.5
2020-01-06T02:43:03,42.805,6.029,-0.001,0.016,-0.047,106.0,109.0,102.0,13.3,1505.4,324.9,-0.7,1.8,2470.249,13.34,0.016,356.4
2020-01-06T02:46:03,42.805,6.029,-0.007,0.021,-0.069,106.0,109.0,101.0,13.4,1505.4,327.9,-0.7,1.9,2470.254,13.34,0.022,341.6
2020-01-06T02:49:03,42.805,6.029,0.009,0.009,0.011,106.0,109.0,101.0,13.4,1505.4,326.2,-0.7,1.8,2470.294,13.34,0.012,45.0
2020-01-06T02:52:03,42.805,6.029,-0.015,0.036,-0.029,105.0,110.0,102.0,13.4,1505.4,326.9,-0.7,1.8,2470.266,13.34,0.039,337.4
2020-01-06T02:55:03,42.805,6.029,-0.01,0.028,-0.056,106.0,109.0,103.0,13.4,1505.4,326.1,-0.7,1.8,2470.255,13.34,0.029,340.4
2020-01-06T02:58:03,42.805,6.029,0.005,0.0,-0.029,106.0,107.0,102.0,13.4,1505.4,324.6,-0.7,1.9,2470.214,13.34,0.005,90.0
2020-01-06T03:04:03,42.805,6.029,-0.007,0.021,-0.044,106.0,109.0,105.0,13.3,1505.3,323.8,-0.8,1.8,2470.273,13.31,0.022,341.6
2020-01-06T03:07:03,42.805,6.029,-0.008,0.013,-0.049,105.0,110.0,101.0,13.4,1505.3,327.1,-0.7,1.8,2470.324,13.32,0.015,328.4
2020-01-06T03:10:03,42.805,6.029,0.033,0.02,0.027,104.0,110.0,102.0,13.3,1505.3,325.9,-0.7,1.9,2470.315,13.32,0.038,58.8
2020-01-06T03:13:03,42.805,6.029,0.011,0.023,-0.001,106.0,108.0,101.0,13.4,1505.3,324.5,-0.7,1.8,2470.296,13.32,0.025,25.6
2020-01-06T03:16:03,42.805,6.029,0.011,0.012,0.0,107.0,108.0,103.0,13.4,1505.3,325.2,-0.7,1.9,2470.253,13.33,0.016,42.5
2020-01-06T03:19:03,42.805,6.029,0.0,0.024,-0.054,106.0,112.0,102.0,13.4,1505.3,324.2,-0.7,1.8,2470.315,13.33,0.024,0.0
2020-01-06T03:22:03,42.805,6.029,-0.005,0.029,-0.057,106.0,112.0,101.0,13.4,1505.3,327.6,-0.7,1.8,2470.296,13.33,0.029,350.2
2020-01-06T03:25:03,42.805,6.029,0.019,0.015,0.008,105.0,110.0,103.0,13.3,1505.3,326.3,-0.7,1.8,2470.316,13.33,0.024,51.7
2020-01-06T03:28:03,42.805,6.029,0.026,0.005,-0.004,106.0,111.0,102.0,13.4,1505.3,328.1,-0.7,1.8,2470.244,13.33,0.026,79.1
2020-01-06T03:31:03,42.805,6.029,-0.005,-0.012,-0.067,107.0,110.0,102.0,13.4,1505.3,325.1,-0.7,1.8,2470.304,13.33,0.013,202.6
2020-01-06T03:34:03,42.805,6.029,0.014,-0.002,-0.028,106.0,111.0,102.0,13.4,1505.3,325.3,-0.7,1.9,2470.29,13.33,0.014,98.1
2020-01-06T03:37:03,42.805,6.029,0.017,0.025,-0.013,107.0,111.0,101.0,13.3,1505.3,326.3,-0.7,1.8,2470.284,13.33,0.03,34.2
2020-01-06T03:40:03,42.805,6.029,0.011,0.025,-0.046,104.0,111.0,103.0,13.4,1505.3,325.4,-0.7,1.8,2470.275,13.33,0.027,23.7
2020-01-06T03:43:03,42.805,6.029,0.011,0.019,-0.019,106.0,111.0,101.0,13.4,1505.3,325.5,-0.7,1.8,2470.27,13.33,0.021,30.1
2020-01-06T03:46:03,42.805,6.029,0.034,0.013,-0.007,107.0,109.0,102.0,13.4,1505.3,323.9,-0.7,1.8,2470.291,13.33,0.036,69.1
2020-01-06T03:49:03,42.805,6.029,0.022,0.005,-0.028,105.0,111.0,101.0,13.4,1505.3,326.1,-0.7,1.8,2470.3,13.33,0.022,77.2
2020-01-06T03:52:03,42.805,6.029,0.009,0.006,-0.047,105.0,110.0,102.0,13.4,1505.3,325.8,-0.7,1.8,2470.273,13.33,0.01,56.3
2020-01-06T03:55:03,42.805,6.029,0.003,0.02,-0.008,106.0,111.0,103.0,13.4,1505.3,325.8,-0.7,1.9,2470.308,13.33,0.02,8.5
2020-01-06T03:58:03,42.805,6.029,-0.002,0.002,-0.035,107.0,109.0,103.0,13.4,1505.3,324.8,-0.7,1.9,2470.305,13.33,0.002,315.0
2020-01-06T04:04:03,42.805,6.029,0.021,0.007,-0.015,107.0,111.0,103.0,13.4,1505.3,325.1,-0.7,1.8,2470.326,13.31,0.022,71.6
2020-01-06T04:07:03,42.805,6.029,0.013,0.007,-0.009,105.0,110.0,101.0,13.4,1505.3,324.9,-0.7,1.8,2470.359,13.31,0.014,61.7
2020-01-06T04:10:03,42.805,6.029,0.016,-0.001,-0.033,106.0,110.0,101.0,13.4,1505.3,325.9,-0.7,1.8,2470.284,13.32,0.016,93.6
2020-01-06T04:13:03,42.805,6.029,0.014,0.006,-0.022,104.0,109.0,101.0,13.4,1505.3,324.9,-0.7,1.8,2470.293,13.32,0.015,66.8
2020-01-06T04:16:03,42.805,6.029,0.028,0.007,-0.039,107.0,112.0,103.0,13.4,1505.3,325.0,-0.7,1.9,2470.268,13.33,0.028,76.0
2020-01-06T04:19:03,42.805,6.029,0.028,0.009,-0.022,106.0,110.0,103.0,13.4,1505.3,328.1,-0.7,1.8,2470.325,13.33,0.029,72.2
2020-01-06T04:22:03,42.805,6.029,0.034,0.001,-0.007,106.0,109.0,102.0,13.4,1505.3,324.6,-0.8,1.8,2470.297,13.33,0.034,88.3
2020-01-06T04:25:03,42.805,6.029,0.031,0.016,-0.008,103.0,110.0,103.0,13.4,1505.3,326.8,-0.7,1.8,2470.263,13.33,0.034,62.7
2020-01-06T04:28:03,42.805,6.029,0.027,0.02,0.001,105.0,108.0,102.0,13.3,1505.3,324.5,-0.7,1.8,2470.265,13.33,0.033,53.5
2020-01-06T04:31:03,42.805,6.029,0.025,0.012,0.005,107.0,108.0,102.0,13.4,1505.3,327.7,-0.7,1.8,2470.265,13.33,0.027,64.4
2020-01-06T04:34:03,42.805,6.029,0.028,0.009,-0.006,105.0,109.0,102.0,13.4,1505.3,325.3,-0.7,1.9,2470.294,13.33,0.029,72.2
2020-01-06T04:37:03,42.805,6.029,0.023,0.01,-0.002,105.0,109.0,103.0,13.3,1505.3,326.5,-0.7,1.8,2470.314,13.33,0.025,66.5
2020-01-06T04:40:03,42.805,6.029,0.007,0.013,-0.007,105.0,109.0,103.0,13.3,1505.3,324.8,-0.7,1.8,2470.329,13.33,0.014,28.3
2020-01-06T04:43:03,42.805,6.029,0.025,0.014,0.012,107.0,108.0,103.0,13.4,1505.3,325.6,-0.7,1.8,2470.339,13.33,0.028,60.7
2020-01-06T04:46:03,42.805,6.029,0.011,0.022,-0.024,106.0,109.0,102.0,13.4,1505.3,326.0,-0.7,1.8,2470.287,13.33,0.024,26.6
2020-01-06T04:49:03,42.805,6.029,0.016,0.001,-0.043,105.0,110.0,103.0,13.4,1505.3,324.5,-0.7,1.8,2470.295,13.33,0.016,86.4
2020-01-06T04:52:03,42.805,6.029,0.021,0.002,-0.005,104.0,108.0,102.0,13.4,1505.3,325.0,-0.7,1.8,2470.31,13.33,0.021,84.6
2020-01-06T04:55:03,42.805,6.029,0.02,0.019,-0.002,105.0,109.0,102.0,13.3,1505.3,326.9,-0.7,1.9,2470.295,13.33,0.027,46.5
2020-01-06T04:58:03,42.805,6.029,0.032,0.013,-0.017,105.0,111.0,103.0,13.3,1505.3,325.8,-0.7,1.9,2470.28,13.33,0.034,67.9
2020-01-06T05:04:03,42.805,6.029,0.023,0.014,-0.022,106.0,109.0,103.0,13.4,1505.3,326.8,-0.7,1.8,2470.307,13.31,0.026,58.7
2020-01-06T05:07:03,42.805,6.029,0.029,0.0,-0.018,106.0,111.0,104.0,13.4,1505.3,324.8,-0.7,1.8,2470.294,13.31,0.028,90.0
2020-01-06T05:10:03,42.805,6.029,0.019,0.012,-0.005,107.0,110.0,103.0,13.4,1505.3,325.6,-0.7,1.8,2470.313,13.32,0.022,57.7
2020-01-06T05:13:03,42.805,6.029,0.01,-0.002,-0.035,108.0,111.0,103.0,13.3,1505.3,326.5,-0.7,1.8,2470.328,13.32,0.01,101.3
2020-01-06T05:16:03,42.805,6.029,0.023,-0.013,-0.009,108.0,108.0,103.0,13.3,1505.3,327.4,-0.7,1.8,2470.339,13.33,0.026,119.5
2020-01-06T05:19:03,42.805,6.029,0.026,0.01,-0.009,108.0,109.0,101.0,13.4,1505.3,326.0,-0.7,1.8,2470.284,13.33,0.027,69.0
2020-01-06T05:22:03,42.805,6.029,0.034,-0.001,0.003,105.0,108.0,102.0,13.4,1505.3,325.7,-0.7,1.8,2470.293,13.33,0.034,91.7
2020-01-06T05:25:03,42.805,6.029,0.008,-0.005,0.001,106.0,110.0,103.0,13.4,1505.3,324.3,-0.7,1.9,2470.301,13.33,0.009,122.0
2020-01-06T05:28:03,42.805,6.029,0.042,-0.004,0.003,107.0,110.0,104.0,13.4,1505.3,327.6,-0.7,1.8,2470.251,13.33,0.042,95.4
2020-01-06T05:31:03,42.805,6.029,0.042,0.007,-0.007,106.0,108.0,104.0,13.3,1505.3,327.7,-0.7,1.8,2470.317,13.33,0.042,80.5
2020-01-06T05:34:03,42.805,6.029,0.024,0.011,-0.001,109.0,109.0,104.0,13.4,1505.3,325.9,-0.7,1.8,2470.278,13.33,0.026,65.4
2020-01-06T05:37:03,42.805,6.029,0.03,0.011,0.004,107.0,109.0,103.0,13.4,1505.3,323.5,-0.7,1.8,2470.32,13.33,0.031,69.9
2020-01-06T05:40:03,42.805,6.029,0.041,-0.001,-0.008,109.0,110.0,103.0,13.4,1505.3,323.9,-0.7,1.8,2470.304,13.33,0.041,91.4
2020-01-06T05:43:03,42.805,6.029,0.031,-0.005,-0.025,108.0,111.0,102.0,13.4,1505.3,323.2,-0.7,1.8,2470.26,13.33,0.031,99.2
2020-01-06T05:46:03,42.805,6.029,0.007,0.004,-0.014,106.0,109.0,103.0,13.4,1505.3,328.4,-0.7,1.9,2470.271,13.33,0.008,60.3
2020-01-06T05:49:03,42.805,6.029,0.031,0.002,0.015,107.0,108.0,103.0,13.4,1505.3,325.7,-0.7,1.8,2470.264,13.33,0.031,86.3
2020-01-06T05:52:03,42.805,6.029,0.008,-0.004,-0.031,107.0,111.0,104.0,13.3,1505.3,326.5,-0.7,1.8,2470.273,13.33,0.008,116.6
2020-01-06T05:55:03,42.805,6.029,0.018,-0.003,-0.016,107.0,111.0,104.0,13.3,1505.3,323.1,-0.7,1.8,2470.249,13.33,0.018,99.5
2020-01-06T05:58:03,42.805,6.029,0.012,0.021,-0.008,109.0,110.0,103.0,13.3,1505.3,325.3,-0.7,1.8,2470.244,13.33,0.024,29.7
2020-01-06T06:04:03,42.805,6.029,0.033,0.0,-0.007,108.0,110.0,104.0,13.3,1505.3,323.1,-0.8,1.8,2470.387,13.31,0.033,90.0
2020-01-06T06:07:03,42.805,6.029,0.013,0.002,-0.035,108.0,110.0,105.0,13.3,1505.3,328.7,-0.7,1.9,2470.297,13.32,0.013,81.3
2020-01-06T06:10:03,42.805,6.029,0.014,0.007,0.0,109.0,110.0,103.0,13.4,1505.3,326.3,-0.7,1.8,2470.301,13.32,0.015,63.4
2020-01-06T06:13:03,42.805,6.029,0.052,0.003,-0.004,107.0,107.0,104.0,13.4,1505.3,327.0,-0.7,1.8,2470.296,13.33,0.052,86.7
2020-01-06T06:16:03,42.805,6.029,0.022,0.007,0.024,105.0,111.0,105.0,13.3,1505.3,326.4,-0.7,1.8,2470.306,13.33,0.023,72.4
2020-01-06T06:19:03,42.805,6.029,0.009,0.02,-0.017,106.0,111.0,103.0,13.4,1505.3,326.0,-0.7,1.8,2470.293,13.33,0.021,24.2
2020-01-06T06:22:03,42.805,6.029,0.011,0.011,-0.022,107.0,110.0,102.0,13.4,1505.3,324.6,-0.7,1.8,2470.243,13.33,0.015,45.0
2020-01-06T06:25:03,42.805,6.029,0.018,0.013,-0.013,107.0,108.0,104.0,13.4,1505.3,326.3,-0.8,1.8,2470.272,13.33,0.022,54.2
2020-01-06T06:28:03,42.805,6.029,0.042,-0.007,-0.011,107.0,110.0,104.0,13.4,1505.3,324.6,-0.7,1.9,2470.268,13.33,0.042,99.5
2020-01-06T06:31:03,42.805,6.029,0.006,-0.001,-0.051,107.0,109.0,103.0,13.4,1505.3,327.1,-0.7,1.8,2470.283,13.33,0.006,99.5
2020-01-06T06:34:03,42.805,6.029,0.013,0.014,-0.017,106.0,110.0,103.0,13.3,1505.3,325.7,-0.7,1.9,2470.285,13.33,0.019,42.9
2020-01-06T06:37:03,42.805,6.029,0.04,-0.009,-0.014,106.0,108.0,104.0,13.4,1505.3,326.3,-0.7,1.9,2470.258,13.33,0.041,102.7
2020-01-06T06:40:03,42.805,6.029,0.032,-0.004,0.022,107.0,110.0,103.0,13.4,1505.3,324.1,-0.8,1.8,2470.318,13.33,0.032,97.1
2020-01-06T06:43:03,42.805,6.029,0.025,-0.006,-0.022,108.0,107.0,103.0,13.3,1505.3,324.9,-0.7,1.8,2470.264,13.33,0.025,103.5
2020-01-06T06:46:03,42.805,6.029,0.018,-0.007,-0.026,106.0,109.0,103.0,13.4,1505.3,324.0,-0.7,1.9,2470.225,13.33,0.019,111.2
2020-01-06T06:49:03,42.805,6.029,-0.004,0.0,-0.01,107.0,107.0,106.0,13.4,1505.3,328.1,-0.7,1.9,2470.266,13.33,0.004,270.0
2020-01-06T06:52:03,42.805,6.029,0.013,-0.003,-0.034,107.0,110.0,104.0,13.3,1505.3,324.0,-0.7,1.8,2470.292,13.33,0.013,103.0
2020-01-06T06:55:03,42.805,6.029,-0.016,0.002,-0.073,106.0,109.0,103.0,13.4,1505.3,327.3,-0.7,1.8,2470.235,13.33,0.016,277.1
2020-01-06T06:58:03,42.805,6.029,-0.009,0.015,-0.037,106.0,108.0,103.0,13.3,1505.3,323.6,-0.7,1.9,2470.281,13.33,0.017,329.0
2020-01-06T07:04:03,42.805,6.029,0.02,0.012,-0.038,106.0,109.0,102.0,13.4,1505.3,327.1,-0.8,1.8,2470.302,13.31,0.023,59.0
2020-01-06T07:07:03,42.805,6.029,0.0,0.002,-0.017,107.0,110.0,103.0,13.3,1505.3,327.0,-0.7,1.8,2470.303,13.32,0.002,0.0
2020-01-06T07:10:03,42.805,6.029,-0.005,0.014,-0.041,108.0,109.0,104.0,13.4,1505.3,327.0,-0.7,1.8,2470.263,13.32,0.014,340.4
2020-01-06T07:13:03,42.805,6.029,0.004,-0.012,-0.033,107.0,109.0,103.0,13.3,1505.3,324.9,-0.7,1.8,2470.263,13.33,0.012,161.6
2020-01-06T07:16:03,42.805,6.029,-0.013,-0.018,-0.012,107.0,111.0,103.0,13.4,1505.3,325.9,-0.7,1.8,2470.292,13.33,0.022,215.8
2020-01-06T07:19:03,42.805,6.029,-0.004,-0.007,-0.049,108.0,110.0,105.0,13.4,1505.3,325.4,-0.7,1.9,2470.267,13.33,0.008,209.7
2020-01-06T07:22:03,42.805,6.029,0.011,0.005,0.0,107.0,109.0,105.0,13.3,1505.3,324.6,-0.7,1.8,2470.295,13.33,0.012,65.6
2020-01-06T07:25:03,42.805,6.029,0.0,0.003,-0.012,107.0,112.0,104.0,13.4,1505.3,328.0,-0.7,1.9,2470.258,13.33,0.003,0.0
2020-01-06T07:28:03,42.805,6.029,0.006,0.0,-0.012,108.0,110.0,104.0,13.3,1505.3,325.8,-0.7,1.9,2470.249,13.33,0.006,90.0
2020-01-06T07:31:03,42.805,6.029,0.006,0.015,0.001,109.0,110.0,103.0,13.4,1505.3,326.0,-0.7,1.8,2470.247,13.33,0.016,21.8
2020-01-06T07:34:03,42.805,6.029,-0.014,-0.003,-0.054,109.0,109.0,105.0,13.4,1505.3,326.1,-0.7,1.9,2470.286,13.33,0.014,257.9
2020-01-06T07:40:03,42.805,6.029,-0.008,0.003,-0.022,109.0,110.0,104.0,13.3,1505.3,324.9,-0.7,1.8,2470.318,13.31,0.008,290.6
2020-01-06T07:43:03,42.805,6.029,0.02,0.014,-0.016,107.0,109.0,103.0,13.3,1505.3,328.0,-0.7,1.8,2470.258,13.32,0.024,55.0
2020-01-06T07:46:03,42.805,6.029,0.003,0.0,-0.067,107.0,111.0,102.0,13.4,1505.3,328.1,-0.7,1.8,2470.315,13.33,0.003,90.0
2020-01-06T07:49:03,42.805,6.029,0.007,0.002,-0.044,108.0,108.0,103.0,13.4,1505.3,325.3,-0.7,1.8,2470.257,13.33,0.007,74.1
2020-01-06T07:52:03,42.805,6.029,0.003,-0.014,-0.042,107.0,108.0,103.0,13.3,1505.3,323.7,-0.7,1.8,2470.247,13.33,0.014,167.9
2020-01-06T07:55:03,42.805,6.029,0.005,0.0,-0.04,107.0,108.0,103.0,13.4,1505.3,324.1,-0.7,1.9,2470.253,13.33,0.005,90.0
2020-01-06T07:58:03,42.805,6.029,-0.006,0.01,-0.032,105.0,108.0,104.0,13.4,1505.3,325.1,-0.7,1.8,2470.242,13.33,0.011,329.0
2020-01-06T08:04:03,42.805,6.029,-0.014,0.004,-0.059,105.0,108.0,103.0,13.4,1505.3,326.4,-0.8,1.8,2470.311,13.31,0.014,285.9
2020-01-06T08:07:03,42.805,6.029,0.0,0.006,-0.036,105.0,110.0,103.0,13.4,1505.3,327.5,-0.7,1.8,2470.311,13.32,0.006,0.0
2020-01-06T08:10:03,42.805,6.029,0.019,-0.004,-0.031,107.0,109.0,104.0,13.4,1505.3,325.4,-0.7,1.9,2470.247,13.32,0.019,101.9
2020-01-06T08:13:03,42.805,6.029,0.004,-0.017,-0.021,107.0,108.0,103.0,13.4,1505.3,325.9,-0.7,1.8,2470.294,13.33,0.017,166.8
2020-01-06T08:16:03,42.805,6.029,-0.004,0.012,-0.035,107.0,111.0,104.0,13.4,1505.3,327.0,-0.7,1.9,2470.26,13.33,0.012,341.6
2020-01-06T08:19:03,42.805,6.029,-0.004,0.016,-0.033,107.0,112.0,105.0,13.3,1505.3,326.9,-0.7,1.8,2470.271,13.33,0.016,346.0
2020-01-06T08:22:03,42.805,6.029,-0.009,-0.004,-0.051,107.0,109.0,104.0,13.3,1505.3,326.7,-0.7,1.8,2470.285,13.33,0.009,246.0
2020-01-06T08:25:03,42.805,6.029,0.008,0.005,-0.034,109.0,111.0,103.0,13.4,1505.3,326.6,-0.7,1.9,2470.29,13.33,0.009,58.0
2020-01-06T08:28:03,42.805,6.029,-0.001,0.014,-0.024,108.0,110.0,103.0,13.4,1505.4,326.5,-0.7,1.9,2470.273,13.34,0.014,355.9
2020-01-06T08:31:03,42.805,6.029,-0.01,-0.016,-0.047,108.0,110.0,105.0,13.4,1505.4,323.3,-0.7,1.8,2470.285,13.34,0.018,212.0
2020-01-06T08:34:03,42.805,6.029,0.001,0.006,-0.005,106.0,108.0,105.0,13.4,1505.4,325.8,-0.7,1.9,2470.27,13.34,0.006,9.5
2020-01-06T08:37:03,42.805,6.029,0.0,0.02,-0.01,107.0,109.0,102.0,13.3,1505.4,328.2,-0.7,1.9,2470.26,13.34,0.02,0.0
2020-01-06T08:40:03,42.805,6.029,-0.01,-0.002,-0.05,108.0,108.0,105.0,13.4,1505.4,323.8,-0.7,1.9,2470.267,13.34,0.01,258.7
2020-01-06T08:43:03,42.805,6.029,0.009,-0.016,-0.023,107.0,110.0,104.0,13.4,1505.4,326.9,-0.7,1.8,2470.253,13.34,0.018,150.6
2020-01-06T08:46:03,42.805,6.029,0.004,-0.001,0.008,110.0,111.0,105.0,13.4,1505.4,325.3,-0.8,1.8,2470.264,13.34,0.004,104.0
2020-01-06T08:49:03,42.805,6.029,0.008,-0.003,-0.016,109.0,109.0,105.0,13.4,1505.4,327.3,-0.7,1.8,2470.259,13.34,0.008,110.6
2020-01-06T08:52:03,42.805,6.029,0.007,0.004,-0.012,108.0,111.0,107.0,13.4,1505.4,327.6,-0.7,1.8,2470.259,13.34,0.008,60.3
2020-01-06T08:55:03,42.805,6.029,0.004,0.001,-0.038,107.0,111.0,107.0,13.4,1505.4,324.9,-0.7,1.8,2470.263,13.34,0.004,76.0
2020-01-06T08:58:03,42.805,6.029,0.007,0.014,-0.022,109.0,113.0,105.0,13.4,1505.4,323.8,-0.7,1.8,2470.229,13.34,0.015,26.6
2020-01-06T09:04:03,42.805,6.029,0.021,0.001,-0.007,109.0,113.0,106.0,13.4,1505.3,326.0,-0.7,1.8,2470.256,13.32,0.021,87.3
2020-01-06T09:07:03,42.805,6.029,0.003,0.011,-0.028,110.0,109.0,106.0,13.4,1505.3,325.3,-0.7,1.9,2470.219,13.33,0.011,15.3
2020-01-06T09:10:03,42.805,6.029,0.005,0.022,-0.042,112.0,113.0,104.0,13.4,1505.3,325.5,-0.7,1.8,2470.273,13.33,0.022,12.8
2020-01-06T09:13:03,42.805,6.029,0.029,0.0,0.007,110.0,111.0,105.0,13.4,1505.3,326.9,-0.7,1.8,2470.261,13.33,0.028,90.0
2020-01-06T09:16:03,42.805,6.029,0.015,0.003,-0.009,110.0,114.0,106.0,13.4,1505.4,326.7,-0.7,1.8,2470.25,13.34,0.015,78.7
2020-01-06T09:19:03,42.805,6.029,0.015,-0.017,-0.024,109.0,111.0,106.0,13.4,1505.4,325.9,-0.7,1.8,2470.236,13.34,0.022,138.6
2020-01-06T09:22:03,42.805,6.029,0.011,0.001,0.007,109.0,111.0,106.0,13.4,1505.4,327.0,-0.7,1.8,2470.236,13.34,0.011,84.8
2020-01-06T09:25:03,42.805,6.029,0.003,-0.007,-0.034,110.0,112.0,105.0,13.4,1505.4,323.3,-0.7,1.8,2470.243,13.34,0.007,156.8
2020-01-06T09:28:03,42.805,6.029,0.018,0.009,0.0,109.0,110.0,104.0,13.4,1505.4,326.2,-0.7,1.9,2470.261,13.34,0.02,63.4
2020-01-06T09:31:03,42.805,6.029,0.016,0.001,-0.011,108.0,112.0,108.0,13.3,1505.4,328.4,-0.7,1.8,2470.274,13.34,0.016,86.4
2020-01-06T09:34:03,42.805,6.029,0.012,0.011,-0.009,108.0,112.0,105.0,13.4,1505.4,326.4,-0.7,1.8,2470.217,13.34,0.016,47.5
2020-01-06T09:37:03,42.805,6.029,0.015,0.001,-0.005,110.0,111.0,105.0,13.4,1505.4,328.1,-0.7,1.8,2470.228,13.34,0.015,86.2
2020-01-06T09:40:03,42.805,6.029,0.021,-0.009,-0.019,111.0,111.0,105.0,13.4,1505.4,323.7,-0.7,1.8,2470.234,13.34,0.022,113.2
2020-01-06T09:43:03,42.805,6.029,0.023,0.0,0.025,109.0,109.0,106.0,13.3,1505.4,326.8,-0.7,1.9,2470.227,13.34,0.023,90.0
2020-01-06T09:46:03,42.805,6.029,0.031,-0.003,0.009,112.0,112.0,105.0,13.4,1505.4,328.1,-0.7,1.9,2470.288,13.34,0.031,95.5
2020-01-06T09:49:03,42.805,6.029,0.032,-0.004,0.034,112.0,112.0,107.0,13.4,1505.4,325.1,-0.7,1.8,2470.208,13.34,0.032,97.1
2020-01-06T09:52:03,42.805,6.029,0.018,0.009,0.003,110.0,112.0,105.0,13.3,1505.4,328.1,-0.7,1.8,2470.241,13.34,0.02,63.4
2020-01-06T09:55:03,42.805,6.029,0.012,-0.023,-0.046,110.0,114.0,107.0,13.4,1505.4,325.5,-0.7,1.8,2470.256,13.34,0.025,152.4
2020-01-06T09:58:03,42.805,6.029,0.013,0.004,0.018,111.0,111.0,106.0,13.4,1505.4,328.0,-0.7,1.9,2470.226,13.34,0.013,72.9
2020-01-06T10:04:03,42.805,6.029,0.01,0.016,-0.027,109.0,112.0,106.0,13.4,1505.3,327.8,-0.7,1.8,2470.291,13.31,0.018,32.0
2020-01-06T10:07:03,42.805,6.029,0.017,-0.013,-0.002,110.0,111.0,107.0,13.4,1505.3,327.2,-0.7,1.8,2470.271,13.32,0.021,127.4